Location: Unspecified
(51.5147°N, 7.4673°E)
Time: 12:37:50
(UTC+01:00)

A-11 Canister half - Pass Details

Date: 18 February 2026
Orbit: 1513 x 1686 km, 47.2° (Epoch: 17 March)

Event Time Altitude Azimuth Distance (km) Brightness Sun altitude
Rises 23:53:21 0° 257° (WSW) 4,928 11.7 -48.9°
Enters shadow 23:55:15 - 256° (WSW) 4,334 11.4 -49.0°
Reaches altitude 10° 23:56:33 10° 255° (WSW) 3,929 - -49.0°
Maximum altitude 00:06:31 70° 175° (S) 1,729 - -49.5°
Drops below altitude 10° 00:16:10 10° 95° (E) 3,807 - -49.8°
Sets 00:19:13 0° 93° (E) 4,769 - -49.9°
